Weather History for KAPC - November, 2011

Change the Weather History Date:

Thursday, November 17, 2011

  Actual Average Record
Temperature  
Mean Temperature 52 °F 51 °F  
Max Temperature 66 °F 63 °F 78 °F (2008)
Min Temperature 37 °F 39 °F 25 °F (2000)
Degree Days  
Heating Degree Days 13    
Month to date heating degree days 239  
Since 1 July heating degree days 457  
Cooling Degree Days 0    
Month to date cooling degree days 0  
Year to date cooling degree days 175  
Moisture  
Dew Point 44 °F    
Average Humidity 80    
Maximum Humidity 100    
Minimum Humidity 60    
Precipitation  
Precipitation 0.00 in - 2.34 in (1942)
Month to date precipitation 1.56  
Year to date precipitation 18.60  
Since 1 July precipitation 2.75  
Sea Level Pressure  
Sea Level Pressure 30.15 in    
Wind  
Wind Speed 6 mph (West)    
Max Wind Speed 17 mph    
Max Gust Speed 51 mph    
Visibility 4 miles    
Events Fog    
T = Trace of Precipitation, MM = Missing Value Source: NWS Daily Summary

Daily Weather History Graph

Daily Weather History Graph

Search for Another Location

Airport or City:

Trip Planner

Search our weather history database for the weather conditions in past years. The results will help you decide how hot, cold, wet, or windy it might be!

Date:

Astronomy

Nov. 17, 2011 Rise Set
Actual Time 6:52 AM PST 4:55 PM PST
Civil Twilight 6:23 AM PST 5:23 PM PST
Nautical Twilight 5:51 AM PST 5:55 PM PST
Astronomical Twilight 5:20 AM PST 6:27 PM PST
Moon 11:20 PM PST (11/17) 12:05 PM PST (11/17)
Length of Visible Light 10h 59m
Length of Day
10h 03m
Waning Gibbous, 59% of the Moon is Illuminated
Nov 17
Waning Gibbous
Nov 18
Last Quarter
Nov 24
New
Dec 2
First Quarter
Dec 10
Full

Hourly Weather History & Observations

Time (PST) Temp. Windchill Dew Point Humidity Pressure Visibility Wind Dir Wind Speed Gust Speed Precip Events Conditions
12:40 AM 41.0 °F - 39.2 °F 93% 30.21 in 0.5 mi Calm Calm - N/A Fog Fog
12:54 AM 41.0 °F - 39.0 °F 93% 30.18 in 0.5 mi Calm Calm - N/A Fog Fog
1:00 AM 39.2 °F - 39.2 °F 100% 30.20 in 0.8 mi Calm Calm - N/A   Overcast
1:05 AM 41.0 °F - 39.2 °F 93% 30.20 in 2.5 mi Calm Calm - N/A   Overcast
1:13 AM 41.0 °F - 39.2 °F 93% 30.20 in 5.0 mi Calm Calm - N/A   Overcast
1:52 AM 41.0 °F - 39.2 °F 93% 30.20 in 1.8 mi Calm Calm - N/A   Mostly Cloudy
1:54 AM 41.0 °F - 39.9 °F 96% 30.17 in 1.0 mi Calm Calm - N/A   Mostly Cloudy
1:58 AM 41.0 °F - 39.2 °F 93% 30.20 in 0.5 mi Calm Calm - N/A Fog Fog
2:00 AM 41.0 °F - 39.2 °F 93% 30.20 in 0.8 mi Calm Calm - N/A   Scattered Clouds
2:05 AM 39.2 °F - 39.2 °F 100% 30.20 in 0.8 mi Calm Calm - N/A   Mist
2:14 AM 39.2 °F - 37.4 °F 93% 30.20 in 0.5 mi Calm Calm - N/A Fog Fog
2:54 AM 41.0 °F 39.0 °F 39.9 °F 96% 30.18 in 0.8 mi North 3.5 mph - N/A   Mostly Cloudy
2:57 AM 39.2 °F 37.0 °F 39.2 °F 100% 30.20 in 2.0 mi North 3.5 mph - N/A   Scattered Clouds
3:04 AM 39.2 °F - 39.2 °F 100% 30.20 in 6.0 mi Calm Calm - N/A   Partly Cloudy
3:16 AM 39.2 °F - 37.4 °F 93% 30.20 in 1.8 mi Calm Calm - N/A   Clear
3:25 AM 39.2 °F 37.0 °F 39.2 °F 100% 30.20 in 3.0 mi North 3.5 mph - N/A   Clear
3:40 AM 39.2 °F - 39.2 °F 100% 30.19 in 1.8 mi Calm Calm - N/A   Clear
3:52 AM 37.4 °F - 37.4 °F 100% 30.19 in 0.8 mi Calm Calm - N/A   Clear
3:54 AM 37.0 °F 34.5 °F 37.0 °F 100% 30.16 in 0.8 mi North 3.5 mph - N/A   Mist
4:02 AM 41.0 °F 39.0 °F 39.2 °F 93% 30.19 in 0.5 mi NNW 3.5 mph - N/A Fog Fog
4:13 AM 37.4 °F - 37.4 °F 100% 30.19 in 0.2 mi Calm Calm - N/A Fog Fog
4:21 AM 37.4 °F - 37.4 °F 100% 30.18 in 0.2 mi Calm Calm - N/A Fog Fog
4:48 AM 39.2 °F - 37.4 °F 93% 30.19 in 0.2 mi Calm Calm - N/A Fog Fog
4:54 AM 37.9 °F - 37.9 °F 100% 30.16 in 0.2 mi Calm Calm - N/A Fog Fog
5:16 AM 41.0 °F - 39.2 °F 93% 30.19 in 1.0 mi Calm Calm - N/A   Overcast
5:44 AM 42.8 °F 41.1 °F 42.8 °F 100% 30.18 in 0.8 mi SE 3.5 mph - N/A   Overcast
5:54 AM 43.0 °F - 42.1 °F 97% 30.16 in 0.5 mi Calm Calm - N/A Fog Fog
6:35 AM 42.8 °F - 41.0 °F 93% 30.19 in 1.0 mi Calm Calm - N/A   Overcast
6:39 AM 42.8 °F - 41.0 °F 93% 30.19 in 2.5 mi Calm Calm - N/A   Overcast
6:46 AM 42.8 °F - 41.0 °F 93% 30.19 in 4.0 mi Calm Calm - N/A   Overcast
6:54 AM 42.1 °F - 41.0 °F 96% 30.17 in 4.0 mi Calm Calm - N/A   Overcast
6:59 AM 42.8 °F - 41.0 °F 93% 30.19 in 1.8 mi Calm Calm - N/A   Overcast
7:09 AM 42.8 °F - 42.8 °F 100% 30.19 in 3.0 mi Calm Calm - N/A   Overcast
7:22 AM 42.8 °F - 41.0 °F 93% 30.19 in 2.0 mi Calm Calm - N/A   Overcast
7:32 AM 44.6 °F - 42.8 °F 93% 30.19 in 5.0 mi Calm Calm - N/A   Overcast
7:50 AM 46.4 °F 45.2 °F 46.4 °F 100% 30.19 in 1.8 mi NNW 3.5 mph - N/A   Overcast
7:54 AM 46.9 °F - 46.0 °F 97% 30.17 in 0.8 mi Calm Calm - N/A   Overcast
8:01 AM 46.4 °F 45.2 °F 46.4 °F 100% 30.20 in 0.2 mi NNW 3.5 mph - N/A Fog Fog
8:54 AM 48.9 °F - 48.0 °F 97% 30.17 in 0.2 mi NNW 4.6 mph - N/A Fog Fog
9:18 AM 48.2 °F - 48.2 °F 100% 30.19 in 3.0 mi Calm Calm - N/A   Overcast
9:54 AM 50.0 °F - 48.9 °F 96% 30.17 in 10.0 mi Calm Calm - N/A   Scattered Clouds
10:03 AM 50.0 °F - 48.2 °F 94% 30.19 in 10.0 mi SW 4.6 mph - N/A   Scattered Clouds
10:54 AM 57.0 °F - 48.9 °F 74% 30.15 in 10.0 mi SW 6.9 mph - N/A   Scattered Clouds
11:54 AM 63.0 °F - 48.9 °F 60% 30.10 in 10.0 mi WSW 12.7 mph 19.6 mph N/A   Clear
12:54 PM 64.9 °F - 51.1 °F 61% 30.07 in 10.0 mi WSW 13.8 mph - N/A   Mostly Cloudy
1:54 PM 63.0 °F - 51.1 °F 65% 30.06 in 10.0 mi West 15.0 mph - N/A   Mostly Cloudy
2:54 PM 61.0 °F - 51.1 °F 70% 30.05 in 10.0 mi West 11.5 mph - N/A   Mostly Cloudy
3:23 PM 62.6 °F - 51.8 °F 68% 30.07 in 10.0 mi West 12.7 mph - N/A   Overcast
3:54 PM 60.1 °F - 52.0 °F 75% 30.04 in 10.0 mi West 9.2 mph - N/A   Mostly Cloudy
4:42 PM 57.2 °F - 51.8 °F 82% 30.06 in 10.0 mi West 11.5 mph - N/A   Mostly Cloudy
4:54 PM 57.9 °F - 51.1 °F 78% 30.04 in 10.0 mi West 6.9 mph - N/A   Mostly Cloudy
5:10 PM 57.2 °F - 51.8 °F 82% 30.06 in 10.0 mi WSW 6.9 mph - N/A   Overcast
5:54 PM 57.0 °F - 52.0 °F 83% 30.03 in 10.0 mi WSW 8.1 mph - N/A   Overcast
6:54 PM 57.0 °F - 52.0 °F 83% 30.03 in 10.0 mi WSW 10.4 mph - N/A   Overcast
7:54 PM 55.9 °F - 52.0 °F 87% 30.02 in 10.0 mi WSW 10.4 mph - N/A   Overcast
8:05 PM 55.4 °F - 51.8 °F 88% 30.05 in 10.0 mi WSW 9.2 mph - N/A   Mostly Cloudy
8:54 PM 55.0 °F - 50.0 °F 83% 30.03 in 10.0 mi WSW 11.5 mph - N/A   Clear
9:54 PM 52.0 °F - 46.9 °F 83% 30.04 in 10.0 mi West 9.2 mph - N/A   Partly Cloudy
10:54 PM 48.9 °F - 46.0 °F 90% 30.04 in 10.0 mi West 6.9 mph - N/A   Clear
11:54 PM 48.9 °F - 46.0 °F 90% 30.04 in 10.0 mi WSW 6.9 mph - N/A   Scattered Clouds